| time (UTC) | temp F | wind direction | speed MPH | gust MPH | rain 1hr in | rain 24hr in | rain mn in | humidity % | barometer mb |
| 20260505204017 | 76 | 90 | 2.0 | 6.0 | 0.00 | 0.00 | 0.00 | 10 | 1001.2 |
| 20260505202957 | 77 | 90 | 2.0 | 6.0 | 0.00 | 0.00 | 0.00 | 10 | 1001.4 |
| 20260505201938 | 77 | 90 | 3.0 | 6.0 | 0.00 | 0.00 | 0.00 | 10 | 1001.4 |
| 20260505201427 | 77 | 90 | 2.0 | 7.0 | 0.00 | 0.00 | 0.00 | 10 | 1001.1 |
| 20260505200406 | 77 | 135 | 2.0 | 7.0 | 0.00 | 0.00 | 0.00 | 10 | 1001.1 |
| 20260505195346 | 78 | 68 | 3.0 | 8.0 | 0.00 | 0.00 | 0.00 | 10 | 1001.3 |
| 20260505194837 | 77 | 90 | 3.0 | 7.0 | 0.00 | 0.00 | 0.00 | 10 | 1001.2 |
| 20260505194326 | 78 | 68 | 4.0 | 7.0 | 0.00 | 0.00 | 0.00 | 10 | 1001.3 |
| 20260505193817 | 78 | 113 | 3.0 | 7.0 | 0.00 | 0.00 | 0.00 | 10 | 1001.1 |
| 20260505193306 | 78 | 45 | 4.0 | 7.0 | 0.00 | 0.00 | 0.00 | 10 | 1001.3 |
| 20260505192756 | 78 | 68 | 4.0 | 7.0 | 0.00 | 0.00 | 0.00 | 10 | 1001.4 |
| 20260505191736 | 78 | 90 | 4.0 | 4.0 | 0.00 | 0.00 | 0.00 | 10 | 1001.5 |
| 20260505191226 | 78 | 113 | 1.0 | 4.0 | 0.00 | 0.00 | 0.00 | 10 | 1001.7 |
| 20260505190716 | 78 | 68 | 2.0 | 4.0 | 0.00 | 0.00 | 0.00 | 10 | 1001.7 |
| 20260505190205 | 78 | 90 | 3.0 | 4.0 | 0.00 | 0.00 | 0.00 | 10 | 1001.6 |
| 20260505185656 | 78 | 68 | 2.0 | 4.0 | 0.00 | 0.00 | 0.00 | 10 | 1001.7 |
| 20260505185146 | 78 | 68 | 0.0 | 6.0 | 0.00 | 0.00 | 0.00 | 10 | 1001.8 |
| 20260505184635 | 77 | 68 | 3.0 | 6.0 | 0.00 | 0.00 | 0.00 | 10 | 1001.7 |
| 20260505183615 | 78 | 90 | 2.0 | 6.0 | 0.00 | 0.00 | 0.00 | 10 | 1001.6 |
| 20260505183105 | 77 | 68 | 3.0 | 6.0 | 0.00 | 0.00 | 0.00 | 10 | 1001.3 |
| 20260505182556 | 77 | 338 | 1.0 | 6.0 | 0.00 | 0.00 | 0.00 | 10 | 1001.9 |
| 20260505182046 | 77 | 90 | 1.0 | 6.0 | 0.00 | 0.00 | 0.00 | 10 | 1001.8 |
| 20260505181535 | 77 | 23 | 1.0 | 4.0 | 0.00 | 0.00 | 0.00 | 10 | 1001.8 |
| 20260505181025 | 78 | 45 | 1.0 | 4.0 | 0.00 | 0.00 | 0.00 | 10 | 1001.7 |
| 20260505180004 | 78 | 113 | 0.0 | 4.0 | 0.00 | 0.00 | 0.00 | 10 | 1001.8 |
| 20260505175455 | 78 | 68 | 2.0 | 4.0 | 0.00 | 0.00 | 0.00 | 10 | 1001.7 |
| 20260505174944 | 77 | 45 | 2.0 | 4.0 | 0.00 | 0.00 | 0.00 | 10 | 1001.8 |
| 20260505174434 | 77 | 23 | 2.0 | 6.0 | 0.00 | 0.00 | 0.00 | 10 | 1001.8 |
| 20260505173924 | 77 | 90 | 2.0 | 6.0 | 0.00 | 0.00 | 0.00 | 10 | 1001.9 |
| 20260505173414 | 76 | 45 | 3.0 | 4.0 | 0.00 | 0.00 | 0.00 | 10 | 1002.1 |
| 20260505172903 | 76 | 90 | 1.0 | 4.0 | 0.00 | 0.00 | 0.00 | 10 | 1002.0 |
| 20260505172354 | 75 | 68 | 2.0 | 6.0 | 0.00 | 0.00 | 0.00 | 10 | 1002.1 |
| 20260505171333 | 75 | 45 | 4.0 | 7.0 | 0.00 | 0.00 | 0.00 | 10 | 1002.0 |
| 20260505170824 | 75 | 68 | 2.0 | 8.0 | 0.00 | 0.00 | 0.00 | 10 | 1002.5 |
| 20260505170313 | 74 | 113 | 4.0 | 8.0 | 0.00 | 0.00 | 0.00 | 10 | 1002.1 |
| 20260505165253 | 74 | 68 | 4.0 | 6.0 | 0.00 | 0.00 | 0.00 | 10 | 1002.2 |
| 20260505164743 | 74 | 23 | 2.0 | 6.0 | 0.00 | 0.00 | 0.00 | 10 | 1002.5 |
| 20260505164232 | 74 | 23 | 3.0 | 6.0 | 0.00 | 0.00 | 0.00 | 10 | 1002.6 |
| 20260505163212 | 74 | 68 | 2.0 | 7.0 | 0.00 | 0.00 | 0.00 | 10 | 1002.5 |
| 20260505162702 | 74 | 45 | 2.0 | 7.0 | 0.00 | 0.00 | 0.00 | 10 | 1002.5 |
| 20260505162152 | 74 | 45 | 5.0 | 7.0 | 0.00 | 0.00 | 0.00 | 10 | 1002.7 |
| 20260505161642 | 74 | 45 | 1.0 | 6.0 | 0.00 | 0.00 | 0.00 | 10 | 1002.8 |
| 20260505161135 | 73 | 68 | 1.0 | 11.0 | 0.00 | 0.00 | 0.00 | 10 | 1003.0 |
| 20260505160622 | 73 | 45 | 5.0 | 11.0 | 0.00 | 0.00 | 0.00 | 10 | 1003.0 |
| 20260505160112 | 73 | 45 | 7.0 | 9.0 | 0.00 | 0.00 | 0.00 | 10 | 1003.2 |
| 20260505152501 | 72 | 315 | 2.0 | 8.0 | 0.00 | 0.00 | 0.00 | 10 | 1003.1 |
| 20260505151951 | 72 | 68 | 6.0 | 9.0 | 0.00 | 0.00 | 0.00 | 10 | 1003.1 |
| 20260505151441 | 71 | 68 | 5.0 | 9.0 | 0.00 | 0.00 | 0.00 | 10 | 1003.1 |
| 20260505150421 | 71 | 0 | 6.0 | 15.0 | 0.00 | 0.00 | 0.00 | 10 | 1003.3 |
| 20260505124957 | 67 | 23 | 7.0 | 9.0 | 0.00 | 0.00 | 0.00 | 10 | 1004.0 |
| 20260505123937 | 67 | 45 | 4.0 | 8.0 | 0.00 | 0.00 | 0.00 | 10 | 1003.8 |
| 20260505123428 | 66 | 0 | 2.0 | 9.0 | 0.00 | 0.00 | 0.00 | 10 | 1003.9 |
| 20260505122917 | 66 | 23 | 7.0 | 9.0 | 0.00 | 0.00 | 0.00 | 10 | 1003.8 |
| 20260505122407 | 66 | 0 | 4.0 | 7.0 | 0.00 | 0.00 | 0.00 | 10 | 1004.0 |
| 20260505121857 | 66 | 0 | 4.0 | 7.0 | 0.00 | 0.00 | 0.00 | 10 | 1003.9 |
| 20260505121347 | 65 | 68 | 2.0 | 7.0 | 0.00 | 0.00 | 0.00 | 10 | 1003.6 |
| 20260505120836 | 65 | 23 | 2.0 | 8.0 | 0.00 | 0.00 | 0.00 | 10 | 1003.7 |
| 20260505120326 | 65 | 45 | 2.0 | 8.0 | 0.00 | 0.00 | 0.00 | 10 | 1003.6 |
| 20260505115816 | 65 | 23 | 4.0 | 8.0 | 0.00 | 0.00 | 0.00 | 10 | 1003.6 |
| 20260505115306 | 65 | 45 | 4.0 | 8.0 | 0.00 | 0.00 | 0.00 | 10 | 1003.4 |
| 20260505114756 | 65 | 23 | 5.0 | 8.0 | 0.00 | 0.00 | 0.00 | 10 | 1003.5 |
| 20260505114246 | 65 | 0 | 4.0 | 8.0 | 0.00 | 0.00 | 0.00 | 10 | 1003.2 |
| 20260505113736 | 65 | 23 | 5.0 | 8.0 | 0.00 | 0.00 | 0.00 | 10 | 1003.4 |
| 20260505113226 | 65 | 23 | 4.0 | 7.0 | 0.00 | 0.00 | 0.00 | 10 | 1003.3 |
| 20260505112716 | 65 | 23 | 3.0 | 7.0 | 0.00 | 0.00 | 0.00 | 10 | 1003.1 |
| 20260505112206 | 65 | 23 | 2.0 | 6.0 | 0.00 | 0.00 | 0.00 | 10 | 1003.3 |
| 20260505111657 | 65 | 68 | 4.0 | 6.0 | 0.00 | 0.00 | 0.00 | 10 | 1003.0 |
| 20260505111146 | 63 | 68 | 4.0 | 6.0 | 0.00 | 0.00 | 0.00 | 10 | 1002.9 |
| 20260505110635 | 65 | 45 | 3.0 | 6.0 | 0.00 | 0.00 | 0.00 | 10 | 1003.2 |
| 20260505110126 | 65 | 68 | 4.0 | 7.0 | 0.00 | 0.00 | 0.00 | 10 | 1003.2 |
| 20260505102004 | 65 | 0 | 4.0 | 7.0 | 0.00 | 0.00 | 0.00 | 10 | 1002.9 |
| 20260505101455 | 65 | 23 | 4.0 | 8.0 | 0.00 | 0.00 | 0.00 | 10 | 1002.8 |
| 20260505100944 | 65 | 0 | 6.0 | 8.0 | 0.00 | 0.00 | 0.00 | 10 | 1002.9 |
| 20260505100434 | 65 | 0 | 5.0 | 7.0 | 0.00 | 0.00 | 0.00 | 10 | 1002.7 |
| 20260505095924 | 65 | 23 | 5.0 | 7.0 | 0.00 | 0.00 | 0.00 | 10 | 1002.8 |
| 20260505095414 | 65 | 338 | 5.0 | 7.0 | 0.00 | 0.00 | 0.00 | 10 | 1002.5 |
| 20260505094353 | 65 | 0 | 4.0 | 7.0 | 0.00 | 0.00 | 0.00 | 10 | 1002.4 |
| 20260505093844 | 65 | 0 | 5.0 | 6.0 | 0.00 | 0.00 | 0.00 | 10 | 1002.6 |
| 20260505093334 | 65 | 0 | 5.0 | 6.0 | 0.00 | 0.00 | 0.00 | 10 | 1002.2 |
| 20260505092823 | 65 | 0 | 4.0 | 6.0 | 0.00 | 0.00 | 0.00 | 10 | 1002.5 |
| 20260505092313 | 65 | 338 | 4.0 | 6.0 | 0.00 | 0.00 | 0.00 | 10 | 1002.5 |
| 20260505091803 | 65 | 0 | 4.0 | 6.0 | 0.00 | 0.00 | 0.00 | 10 | 1002.4 |
| 20260505091253 | 65 | 0 | 4.0 | 6.0 | 0.00 | 0.00 | 0.00 | 10 | 1002.3 |
| 20260505090742 | 64 | 338 | 4.0 | 6.0 | 0.00 | 0.00 | 0.00 | 10 | 1002.2 |
| 20260505085722 | 64 | 338 | 4.0 | 8.0 | 0.00 | 0.00 | 0.00 | 10 | 1002.1 |
| 20260505085212 | 64 | 338 | 4.0 | 8.0 | 0.00 | 0.00 | 0.00 | 10 | 1002.3 |
| 20260505084702 | 64 | 0 | 4.0 | 7.0 | 0.00 | 0.00 | 0.00 | 10 | 1001.8 |
| 20260505084152 | 64 | 0 | 5.0 | 7.0 | 0.00 | 0.00 | 0.00 | 10 | 1002.0 |
| 20260505083131 | 64 | 0 | 6.0 | 8.0 | 0.00 | 0.00 | 0.00 | 10 | 1001.7 |
| 20260505082622 | 64 | 0 | 5.0 | 9.0 | 0.00 | 0.00 | 0.00 | 10 | 1001.9 |
| 20260505082111 | 65 | 23 | 7.0 | 9.0 | 0.00 | 0.00 | 0.00 | 10 | 1001.7 |
| 20260505081601 | 65 | 23 | 5.0 | 9.0 | 0.00 | 0.00 | 0.00 | 10 | 1001.8 |
| 20260505081051 | 65 | 0 | 5.0 | 8.0 | 0.00 | 0.00 | 0.00 | 10 | 1001.9 |
| 20260505080542 | 65 | 0 | 6.0 | 9.0 | 0.00 | 0.00 | 0.00 | 10 | 1002.1 |
| 20260505080031 | 65 | 0 | 6.0 | 9.0 | 0.00 | 0.00 | 0.00 | 10 | 1002.1 |
| 20260505075521 | 65 | 338 | 5.0 | 8.0 | 0.00 | 0.00 | 0.00 | 10 | 1002.0 |
| 20260505075011 | 65 | 23 | 6.0 | 9.0 | 0.00 | 0.00 | 0.00 | 10 | 1001.9 |
| 20260505072930 | 65 | 23 | 6.0 | 8.0 | 0.00 | 0.00 | 0.00 | 10 | 1002.1 |
| 20260505072420 | 65 | 23 | 5.0 | 7.0 | 0.00 | 0.00 | 0.00 | 10 | 1001.8 |
| 20260505071911 | 65 | 0 | 4.0 | 8.0 | 0.00 | 0.00 | 0.00 | 10 | 1002.1 |
| 20260505070851 | 65 | 0 | 6.0 | 8.0 | 0.00 | 0.00 | 0.00 | 10 | 1002.1 |
| 20260505070338 | 65 | 0 | 7.0 | 0.0 | 0.00 | 0.00 | 0.00 | 10 | 1002.1 |
| 20260505070145 | 65 | 0 | 7.0 | 0.0 | 0.00 | 0.00 | 0.00 | 10 | 1002.1 |
| 20260505065519 | 65 | 338 | 8.0 | 13.0 | 0.00 | 0.00 | 0.00 | 10 | 1002.3 |
| 20260505064458 | 65 | 338 | 8.0 | 13.0 | 0.00 | 0.00 | 0.00 | 10 | 1002.2 |
| 20260505063947 | 65 | 23 | 8.0 | 13.0 | 0.00 | 0.00 | 0.00 | 10 | 1002.1 |
| 20260505062927 | 65 | 0 | 8.0 | 13.0 | 0.00 | 0.00 | 0.00 | 10 | 1001.8 |
| 20260505062418 | 65 | 338 | 8.0 | 13.0 | 0.00 | 0.00 | 0.00 | 10 | 1002.0 |
| 20260505061906 | 65 | 0 | 6.0 | 13.0 | 0.00 | 0.00 | 0.00 | 10 | 1002.1 |
| 20260505061357 | 65 | 0 | 8.0 | 15.0 | 0.00 | 0.00 | 0.00 | 10 | 1002.0 |
| 20260505055827 | 65 | 0 | 8.0 | 13.0 | 0.00 | 0.00 | 0.00 | 10 | 1002.1 |
| 20260505055317 | 65 | 338 | 8.0 | 13.0 | 0.00 | 0.00 | 0.00 | 10 | 1002.2 |
| 20260505054806 | 65 | 338 | 8.0 | 14.0 | 0.00 | 0.00 | 0.00 | 10 | 1002.1 |
| 20260505053746 | 64 | 338 | 7.0 | 13.0 | 0.00 | 0.00 | 0.00 | 10 | 1002.2 |
| 20260505053236 | 64 | 0 | 7.0 | 13.0 | 0.00 | 0.00 | 0.00 | 10 | 1002.1 |
| 20260505052726 | 64 | 23 | 6.0 | 11.0 | 0.00 | 0.00 | 0.00 | 10 | 1002.0 |
| 20260505052219 | 64 | 23 | 8.0 | 11.0 | 0.00 | 0.00 | 0.00 | 10 | 1002.2 |
| 20260505051707 | 64 | 23 | 7.0 | 11.0 | 0.00 | 0.00 | 0.00 | 10 | 1002.1 |
| 20260505051155 | 64 | 45 | 8.0 | 11.0 | 0.00 | 0.00 | 0.00 | 10 | 1002.2 |
| 20260505050645 | 64 | 23 | 7.0 | 11.0 | 0.00 | 0.00 | 0.00 | 10 | 1001.9 |
| 20260505050136 | 64 | 68 | 9.0 | 11.0 | 0.00 | 0.00 | 0.00 | 10 | 1002.0 |
| 20260505041504 | 63 | 45 | 7.0 | 8.0 | 0.00 | 0.00 | 0.00 | 10 | 1002.5 |
| 20260505040444 | 63 | 338 | 6.0 | 13.0 | 0.00 | 0.00 | 0.00 | 10 | 1002.6 |
| 20260505035934 | 64 | 0 | 8.0 | 13.0 | 0.00 | 0.00 | 0.00 | 10 | 1002.6 |
| 20260505035424 | 64 | 0 | 8.0 | 13.0 | 0.00 | 0.00 | 0.00 | 10 | 1002.5 |
| 20260505034913 | 64 | 45 | 10.0 | 13.0 | 0.00 | 0.00 | 0.00 | 10 | 1002.4 |
| 20260505034404 | 64 | 23 | 10.0 | 14.0 | 0.00 | 0.00 | 0.00 | 10 | 1002.3 |
| 20260505033854 | 64 | 0 | 11.0 | 16.0 | 0.00 | 0.00 | 0.00 | 10 | 1002.3 |
| 20260505033343 | 64 | 23 | 10.0 | 16.0 | 0.00 | 0.00 | 0.00 | 10 | 1002.1 |
| 20260505032833 | 64 | 45 | 11.0 | 15.0 | 0.00 | 0.00 | 0.00 | 10 | 1002.2 |
| 20260505032324 | 65 | 23 | 12.0 | 15.0 | 0.00 | 0.00 | 0.00 | 10 | 1002.3 |
| 20260505031303 | 64 | 23 | 13.0 | 17.0 | 0.00 | 0.00 | 0.00 | 10 | 1002.2 |
| 20260505030753 | 64 | 23 | 12.0 | 17.0 | 0.00 | 0.00 | 0.00 | 10 | 1002.1 |
| 20260505030243 | 64 | 23 | 14.0 | 16.0 | 0.00 | 0.00 | 0.00 | 10 | 1002.1 |
| 20260505025733 | 64 | 23 | 11.0 | 15.0 | 0.00 | 0.00 | 0.00 | 10 | 1002.2 |
| 20260505024203 | 64 | 23 | 11.0 | 16.0 | 0.00 | 0.00 | 0.00 | 10 | 1002.0 |
| 20260505023141 | 64 | 45 | 9.0 | 14.0 | 0.00 | 0.00 | 0.00 | 10 | 1002.0 |
| 20260505022632 | 64 | 23 | 10.0 | 13.0 | 0.00 | 0.00 | 0.00 | 10 | 1002.2 |
| 20260505022123 | 64 | 23 | 8.0 | 11.0 | 0.00 | 0.00 | 0.00 | 10 | 1001.9 |
| 20260505021613 | 63 | 23 | 8.0 | 14.0 | 0.00 | 0.00 | 0.00 | 10 | 1001.9 |
| 20260505021102 | 63 | 45 | 9.0 | 14.0 | 0.00 | 0.00 | 0.00 | 10 | 1001.8 |
| 20260505020043 | 64 | 23 | 11.0 | 13.0 | 0.00 | 0.00 | 0.00 | 10 | 1001.7 |
| 20260505015021 | 64 | 23 | 11.0 | 13.0 | 0.00 | 0.00 | 0.00 | 10 | 1001.8 |
| 20260505014513 | 64 | 45 | 11.0 | 13.0 | 0.00 | 0.00 | 0.00 | 10 | 1001.9 |
| 20260505014002 | 64 | 23 | 8.0 | 11.0 | 0.00 | 0.00 | 0.00 | 10 | 1001.6 |
| 20260505013451 | 64 | 23 | 8.0 | 9.0 | 0.00 | 0.00 | 0.00 | 10 | 1001.8 |
| 20260505012431 | 64 | 45 | 8.0 | 11.0 | 0.00 | 0.00 | 0.00 | 10 | 1001.9 |
| 20260505011921 | 64 | 45 | 9.0 | 11.0 | 0.00 | 0.00 | 0.00 | 10 | 1001.8 |
| 20260505010900 | 64 | 90 | 10.0 | 11.0 | 0.00 | 0.00 | 0.00 | 10 | 1001.7 |
| 20260505010350 | 64 | 68 | 9.0 | 11.0 | 0.00 | 0.00 | 0.00 | 10 | 1001.7 |
| 20260505005840 | 65 | 68 | 9.0 | 11.0 | 0.00 | 0.00 | 0.00 | 10 | 1001.7 |
| 20260505005330 | 65 | 45 | 8.0 | 9.0 | 0.00 | 0.00 | 0.00 | 10 | 1001.5 |
| 20260505004820 | 65 | 68 | 7.0 | 11.0 | 0.00 | 0.00 | 0.00 | 10 | 1001.5 |
| 20260505004310 | 66 | 45 | 9.0 | 11.0 | 0.00 | 0.00 | 0.00 | 10 | 1001.6 |
| 20260505003250 | 66 | 45 | 10.0 | 11.0 | 0.00 | 0.00 | 0.00 | 10 | 1001.5 |
| 20260505002739 | 66 | 68 | 10.0 | 11.0 | 0.00 | 0.00 | 0.00 | 10 | 1001.5 |
| 20260505002229 | 66 | 45 | 11.0 | 11.0 | 0.00 | 0.00 | 0.00 | 10 | 1001.5 |
| 20260505001719 | 66 | 23 | 9.0 | 11.0 | 0.00 | 0.00 | 0.00 | 10 | 1001.4 |
| 20260505001208 | 65 | 45 | 8.0 | 9.0 | 0.00 | 0.00 | 0.00 | 10 | 1001.5 |
| 20260505000700 | 65 | 68 | 5.0 | 7.0 | 0.00 | 0.00 | 0.00 | 10 | 1001.7 |
| 20260505000149 | 65 | 68 | 6.0 | 8.0 | 0.00 | 0.00 | 0.00 | 10 | 1001.4 |
| 20260504235639 | 66 | 45 | 7.0 | 8.0 | 0.00 | 0.00 | 0.00 | 10 | 1001.6 |
| 20260504235129 | 66 | 45 | 8.0 | 8.0 | 0.00 | 0.00 | 0.00 | 10 | 1001.6 |
| 20260504234109 | 65 | 68 | 8.0 | 8.0 | 0.00 | 0.00 | 0.00 | 10 | 1001.4 |
| 20260504233048 | 66 | 45 | 6.0 | 11.0 | 0.00 | 0.00 | 0.00 | 10 | 1001.3 |
| 20260504232028 | 68 | 45 | 10.0 | 11.0 | 0.00 | 0.00 | 0.00 | 10 | 1000.8 |
| 20260504231517 | 67 | 45 | 10.0 | 11.0 | 0.00 | 0.00 | 0.00 | 10 | 1001.2 |
| 20260504231008 | 67 | 45 | 9.0 | 11.0 | 0.00 | 0.00 | 0.00 | 10 | 1000.8 |
| 20260504230458 | 67 | 68 | 11.0 | 11.0 | 0.00 | 0.00 | 0.00 | 10 | 1000.9 |
| 20260504225947 | 67 | 45 | 10.0 | 11.0 | 0.00 | 0.00 | 0.00 | 10 | 1000.6 |
| 20260504225438 | 67 | 45 | 8.0 | 11.0 | 0.00 | 0.00 | 0.00 | 10 | 1000.8 |
| 20260504224927 | 67 | 68 | 8.0 | 11.0 | 0.00 | 0.00 | 0.00 | 10 | 1000.8 |
| 20260504224418 | 67 | 45 | 10.0 | 11.0 | 0.00 | 0.00 | 0.00 | 10 | 1000.6 |
| 20260504223907 | 68 | 68 | 10.0 | 11.0 | 0.00 | 0.00 | 0.00 | 10 | 1000.6 |
| 20260504223357 | 67 | 45 | 9.0 | 11.0 | 0.00 | 0.00 | 0.00 | 10 | 1000.5 |
| 20260504222847 | 67 | 68 | 8.0 | 11.0 | 0.00 | 0.00 | 0.00 | 10 | 1000.5 |
| 20260504222337 | 68 | 68 | 8.0 | 11.0 | 0.00 | 0.00 | 0.00 | 10 | 1000.5 |
| 20260504221827 | 68 | 68 | 9.0 | 11.0 | 0.00 | 0.00 | 0.00 | 10 | 1000.3 |
| 20260504221317 | 68 | 68 | 8.0 | 9.0 | 0.00 | 0.00 | 0.00 | 10 | 1000.4 |
| 20260504220807 | 68 | 68 | 7.0 | 9.0 | 0.00 | 0.00 | 0.00 | 10 | 1000.5 |
| 20260504220256 | 69 | 45 | 8.0 | 8.0 | 0.00 | 0.00 | 0.00 | 10 | 1000.3 |
| 20260504215747 | 69 | 68 | 7.0 | 8.0 | 0.00 | 0.00 | 0.00 | 10 | 1000.2 |
| 20260504215237 | 69 | 68 | 8.0 | 8.0 | 0.00 | 0.00 | 0.00 | 10 | 1000.0 |
| 20260504214216 | 69 | 45 | 6.0 | 7.0 | 0.00 | 0.00 | 0.00 | 10 | 1000.4 |
| 20260504213157 | 69 | 68 | 4.0 | 7.0 | 0.00 | 0.00 | 0.00 | 10 | 1000.0 |
| 20260504212645 | 69 | 68 | 5.0 | 6.0 | 0.00 | 0.00 | 0.00 | 10 | 1000.2 |
| 20260504212135 | 69 | 45 | 4.0 | 6.0 | 0.00 | 0.00 | 0.00 | 10 | 1000.1 |
| 20260504211115 | 69 | 68 | 3.0 | 6.0 | 0.00 | 0.00 | 0.00 | 10 | 1000.2 |
| 20260504210606 | 70 | 90 | 2.0 | 6.0 | 0.00 | 0.00 | 0.00 | 10 | 1000.3 |
| 20260504210104 | 70 | 45 | 4.0 | 6.0 | 0.00 | 0.00 | 0.00 | 10 | 1000.4 |
| 20260504205035 | 71 | 23 | 4.0 | 7.0 | 0.00 | 0.00 | 0.00 | 10 | 1000.6 |